Terminal Aerodrome Forecast
Issued by NWS

Home | Current Version | Previous Version | Text Only | Print | Product List | Glossary Off
Versions: 1 2 3 4 5 6 7 8 9 10 11 12 13 14 15 16 17 18 19 20 21 22 23 24 25 26 27 28 29 30 31 32 33 34 35

000
FTUS45 KGGW 252000 AAB
TAFOLF
TAF AMD
KOLF 252024Z 2520/2618 32017G27KT P6SM SCT025 BKN035 BKN120
     FM260300 35012KT P6SM BKN030
     FM260700 VRB05KT 6SM BR OVC020=

USA.gov is the U.S. government's official web portal to all federal, state and local government web resources and services.